| time (UTC) | temp C | wind direction | speed KPH | gust KPH | rain 1hr cm | rain 24hr cm | rain mn cm | humidity % | barometer mb |
| 20260506224553 | 16 | 45 | 3.2 | 6.4 | 0.00 | 0.00 | 0.00 | 24 | 1012.5 |
| 20260506223553 | 17 | 225 | 6.4 | 6.4 | 0.00 | 0.00 | 0.00 | 24 | 1012.6 |
| 20260506222553 | 17 | 224 | 4.8 | 6.4 | 0.00 | 0.00 | 0.00 | 24 | 1012.7 |
| 20260506221552 | 17 | 181 | 1.6 | 1.6 | 0.00 | 0.00 | 0.00 | 24 | 1012.7 |
| 20260506220552 | 17 | 181 | 1.6 | 1.6 | 0.00 | 0.00 | 0.00 | 24 | 1012.7 |
| 20260506215552 | 17 | 262 | 8.0 | 12.9 | 0.00 | 0.00 | 0.00 | 24 | 1012.7 |
| 20260506214551 | 17 | 270 | 11.3 | 12.9 | 0.00 | 0.00 | 0.00 | 24 | 1012.7 |
| 20260506213551 | 17 | 270 | 8.0 | 8.0 | 0.00 | 0.00 | 0.00 | 24 | 1012.6 |
| 20260506212551 | 17 | 270 | 8.0 | 8.0 | 0.00 | 0.00 | 0.00 | 24 | 1012.5 |
| 20260506211551 | 17 | 270 | 8.0 | 8.0 | 0.00 | 0.00 | 0.00 | 24 | 1012.4 |
| 20260506210550 | 17 | 203 | 8.0 | 12.9 | 0.00 | 0.00 | 0.00 | 24 | 1012.3 |
| 20260506205550 | 16 | 270 | 1.6 | 6.4 | 0.00 | 0.00 | 0.00 | 24 | 1012.0 |
| 20260506204550 | 16 | 234 | 1.6 | 6.4 | 0.00 | 0.00 | 0.00 | 24 | 1011.9 |
| 20260506203549 | 16 | 342 | 1.6 | 3.2 | 0.00 | 0.00 | 0.00 | 24 | 1012.0 |
| 20260506202549 | 17 | 257 | 3.2 | 6.4 | 0.00 | 0.00 | 0.00 | 24 | 1012.2 |
| 20260506201549 | 17 | 304 | 3.2 | 6.4 | 0.00 | 0.00 | 0.00 | 24 | 1012.4 |
| 20260506200549 | 17 | 259 | 4.8 | 6.4 | 0.00 | 0.00 | 0.00 | 24 | 1012.4 |
| 20260506195548 | 17 | 253 | 3.2 | 8.0 | 0.00 | 0.00 | 0.00 | 24 | 1012.4 |
| 20260506194548 | 17 | 276 | 3.2 | 6.4 | 0.00 | 0.00 | 0.00 | 24 | 1012.3 |
| 20260506193548 | 17 | 265 | 3.2 | 4.8 | 0.00 | 0.00 | 0.00 | 24 | 1012.2 |
| 20260506192547 | 17 | 278 | 3.2 | 6.4 | 0.00 | 0.00 | 0.00 | 24 | 1011.9 |
| 20260506191547 | 16 | 266 | 1.6 | 4.8 | 0.00 | 0.00 | 0.00 | 24 | 1011.8 |
| 20260506190547 | 17 | 266 | 0.0 | 4.8 | 0.00 | 0.00 | 0.00 | 24 | 1011.7 |
| 20260506185546 | 17 | 275 | 1.6 | 6.4 | 0.00 | 0.00 | 0.00 | 24 | 1011.7 |
| 20260506184546 | 18 | 203 | 1.6 | 4.8 | 0.00 | 0.00 | 0.00 | 23 | 1011.8 |
| 20260506183546 | 18 | 253 | 3.2 | 8.0 | 0.00 | 0.00 | 0.00 | 23 | 1011.9 |
| 20260506182546 | 19 | 225 | 6.4 | 9.7 | 0.00 | 0.00 | 0.00 | 23 | 1011.9 |
| 20260506181545 | 19 | 248 | 9.7 | 16.1 | 0.00 | 0.00 | 0.00 | 23 | 1011.9 |
| 20260506180545 | 20 | 256 | 6.4 | 16.1 | 0.00 | 0.00 | 0.00 | 23 | 1011.9 |
| 20260506175545 | 19 | 0 | 0.0 | 0.0 | 0.00 | 0.00 | 0.00 | 23 | 1011.9 |
| 20260506174544 | 19 | 270 | 0.0 | 0.0 | 0.00 | 0.00 | 0.00 | 23 | 1011.9 |
| 20260506173544 | 19 | 257 | 0.0 | 0.0 | 0.00 | 0.00 | 0.00 | 23 | 1011.9 |
| 20260506172544 | 20 | 258 | 4.8 | 8.0 | 0.00 | 0.00 | 0.00 | 23 | 1012.1 |
| 20260506171543 | -31 | 270 | 8.0 | 8.0 | 0.00 | 0.00 | 0.00 | 13 | 944.5 |
| 20260506170543 | 20 | 265 | 4.8 | 8.0 | 0.00 | 0.00 | 0.00 | 23 | 1012.2 |
| 20260506165543 | 20 | 232 | 1.6 | 3.2 | 0.00 | 0.00 | 0.00 | 22 | 1012.2 |
| 20260506164543 | 20 | 223 | 3.2 | 6.4 | 0.00 | 0.00 | 0.00 | 23 | 1012.2 |
| 20260506163542 | 20 | 257 | 6.4 | 8.0 | 0.00 | 0.00 | 0.00 | 22 | 1012.2 |
| 20260506162542 | 20 | 244 | 4.8 | 11.3 | 0.00 | 0.00 | 0.00 | 22 | 1012.3 |
| 20260506161542 | 20 | 256 | 4.8 | 8.0 | 0.00 | 0.00 | 0.00 | 22 | 1012.5 |
| 20260506160542 | 20 | 252 | 6.4 | 11.3 | 0.00 | 0.00 | 0.00 | 22 | 1012.6 |
| 20260506155541 | 21 | 241 | 8.0 | 11.3 | 0.00 | 0.00 | 0.00 | 22 | 1012.8 |
| 20260506154541 | 22 | 267 | 6.4 | 9.7 | 0.00 | 0.00 | 0.00 | 21 | 1013.0 |
| 20260506153541 | 22 | 265 | 6.4 | 8.0 | 0.00 | 0.00 | 0.00 | 21 | 1013.2 |
| 20260506152540 | 21 | 246 | 8.0 | 11.3 | 0.00 | 0.00 | 0.00 | 22 | 1013.1 |
| 20260506151540 | 21 | 225 | 6.4 | 11.3 | 0.00 | 0.00 | 0.00 | 22 | 1013.3 |
| 20260506150540 | 21 | 255 | 8.0 | 9.7 | 0.00 | 0.00 | 0.00 | 22 | 1013.1 |
| 20260506145539 | 22 | 238 | 6.4 | 8.0 | 0.00 | 0.00 | 0.00 | 21 | 1013.3 |
| 20260506144539 | 22 | 269 | 8.0 | 16.1 | 0.00 | 0.00 | 0.00 | 21 | 1013.4 |
| 20260506143539 | 23 | 256 | 3.2 | 6.4 | 0.00 | 0.00 | 0.00 | 21 | 1013.6 |
| 20260506142539 | 23 | 252 | 9.7 | 16.1 | 0.00 | 0.00 | 0.00 | 21 | 1013.6 |
| 20260506141538 | 21 | 210 | 12.9 | 16.1 | 0.00 | 0.00 | 0.00 | 22 | 1013.2 |
| 20260506140538 | 21 | 248 | 6.4 | 12.9 | 0.00 | 0.00 | 0.00 | 22 | 1013.3 |
| 20260506135538 | 23 | 242 | 8.0 | 16.1 | 0.00 | 0.00 | 0.00 | 21 | 1013.6 |
| 20260506134537 | 22 | 254 | 11.3 | 16.1 | 0.00 | 0.00 | 0.00 | 21 | 1013.4 |
| 20260506133537 | 22 | 227 | 9.7 | 14.5 | 0.00 | 0.00 | 0.00 | 21 | 1013.3 |
| 20260506132537 | 24 | 271 | 11.3 | 14.5 | 0.00 | 0.00 | 0.00 | 20 | 1013.6 |
| 20260506131537 | 23 | 300 | 4.8 | 14.5 | 0.00 | 0.00 | 0.00 | 21 | 1013.5 |
| 20260506130536 | 23 | 279 | 4.8 | 8.0 | 0.00 | 0.00 | 0.00 | 21 | 1013.4 |
| 20260506125536 | 22 | 251 | 4.8 | 9.7 | 0.00 | 0.00 | 0.00 | 21 | 1013.5 |
| 20260506124536 | 24 | 285 | 4.8 | 9.7 | 0.00 | 0.00 | 0.00 | 20 | 1013.7 |
| 20260506123535 | 25 | 270 | 8.0 | 11.3 | 0.00 | 0.00 | 0.00 | 20 | 1013.9 |
| 20260506122535 | 26 | 265 | 11.3 | 12.9 | 0.00 | 0.00 | 0.00 | 20 | 1013.8 |
| 20260506121535 | 25 | 254 | 9.7 | 12.9 | 0.00 | 0.00 | 0.00 | 20 | 1013.6 |
| 20260506120534 | 25 | 234 | 12.9 | 14.5 | 0.00 | 0.00 | 0.00 | 20 | 1014.0 |
| 20260506115534 | 27 | 278 | 3.2 | 11.3 | 0.00 | 0.00 | 0.00 | 20 | 1014.2 |
| 20260506114534 | 25 | 76 | 9.7 | 12.9 | 0.00 | 0.00 | 0.00 | 20 | 1013.9 |
| 20260506113534 | 23 | 301 | 9.7 | 12.9 | 0.00 | 0.00 | 0.00 | 21 | 1013.8 |
| 20260506112533 | 25 | 238 | 8.0 | 9.7 | 0.00 | 0.00 | 0.00 | 20 | 1014.1 |
| 20260506111533 | 24 | 283 | 8.0 | 9.7 | 0.00 | 0.00 | 0.00 | 20 | 1013.9 |
| 20260506105532 | 23 | 241 | 8.0 | 12.9 | 0.00 | 0.00 | 0.00 | 21 | 1014.2 |
| 20260506104532 | 23 | 292 | 6.4 | 11.3 | 0.00 | 0.00 | 0.00 | 21 | 1014.0 |
| 20260506103532 | 23 | 248 | 4.8 | 12.9 | 0.00 | 0.00 | 0.00 | 21 | 1014.0 |
| 20260506102532 | 24 | 286 | 4.8 | 14.5 | 0.00 | 0.00 | 0.00 | 20 | 1014.2 |
| 20260506101531 | 24 | 263 | 6.4 | 14.5 | 0.00 | 0.00 | 0.00 | 20 | 1014.1 |
| 20260506100531 | 22 | 269 | 6.4 | 14.5 | 0.00 | 0.00 | 0.00 | 21 | 1014.0 |
| 20260506095531 | 23 | 257 | 9.7 | 12.9 | 0.00 | 0.00 | 0.00 | 21 | 1014.2 |
| 20260506094530 | 21 | 254 | 8.0 | 11.3 | 0.00 | 0.00 | 0.00 | 22 | 1014.0 |
| 20260506093530 | 21 | 247 | 6.4 | 11.3 | 0.00 | 0.00 | 0.00 | 22 | 1014.0 |
| 20260506092530 | 21 | 221 | 6.4 | 11.3 | 0.00 | 0.00 | 0.00 | 22 | 1013.9 |
| 20260506091529 | 21 | 212 | 6.4 | 9.7 | 0.00 | 0.00 | 0.00 | 22 | 1014.0 |
| 20260506090529 | 22 | 228 | 4.8 | 6.4 | 0.00 | 0.00 | 0.00 | 21 | 1014.0 |
| 20260506085529 | 21 | 264 | 4.8 | 8.0 | 0.00 | 0.00 | 0.00 | 22 | 1013.9 |
| 20260506084529 | 21 | 273 | 8.0 | 12.9 | 0.00 | 0.00 | 0.00 | 22 | 1013.9 |
| 20260506083528 | 21 | 257 | 6.4 | 9.7 | 0.00 | 0.00 | 0.00 | 22 | 1013.8 |
| 20260506082528 | 20 | 259 | 4.8 | 8.0 | 0.00 | 0.00 | 0.00 | 23 | 1013.7 |
| 20260506081528 | 19 | 316 | 6.4 | 9.7 | 0.00 | 0.00 | 0.00 | 23 | 1013.7 |
| 20260506080527 | 19 | 262 | 6.4 | 9.7 | 0.00 | 0.00 | 0.00 | 23 | 1013.6 |
| 20260506073527 | 19 | 249 | 6.4 | 12.9 | 0.00 | 0.00 | 0.00 | 23 | 1013.6 |
| 20260506072526 | 19 | 281 | 3.2 | 8.0 | 0.00 | 0.00 | 0.00 | 23 | 1013.6 |
| 20260506071526 | 18 | 284 | 6.4 | 12.9 | 0.00 | 0.00 | 0.00 | 23 | 1013.4 |
| 20260506070526 | 17 | 300 | 6.4 | 12.9 | 0.00 | 0.00 | 0.00 | 24 | 1013.5 |
| 20260506061524 | 16 | 283 | 4.8 | 9.7 | 0.00 | 0.00 | 0.00 | 24 | 1013.1 |
| 20260506060524 | 16 | 296 | 6.4 | 9.7 | 0.00 | 0.00 | 0.00 | 24 | 1013.2 |
| 20260506050522 | 12 | 0 | 0.0 | 0.0 | 0.00 | 0.00 | 0.00 | 26 | 1012.5 |
| 20260506044522 | 12 | 0 | 0.0 | 0.0 | 0.00 | 0.00 | 0.00 | 26 | 1012.4 |
| 20260506043521 | 12 | 0 | 0.0 | 0.0 | 0.00 | 0.00 | 0.00 | 26 | 1012.2 |
| 20260506042521 | 12 | 0 | 0.0 | 0.0 | 0.00 | 0.00 | 0.00 | 26 | 1012.1 |
| 20260506041521 | 12 | 0 | 0.0 | 0.0 | 0.00 | 0.00 | 0.00 | 26 | 1012.1 |
| 20260506040520 | 12 | 0 | 0.0 | 0.0 | 0.00 | 0.00 | 0.00 | 26 | 1012.1 |
| 20260506035520 | 12 | 314 | 0.0 | 3.2 | 0.00 | 0.00 | 0.00 | 26 | 1012.0 |
| 20260506034520 | 12 | 315 | 3.2 | 3.2 | 0.00 | 0.00 | 0.00 | 26 | 1011.9 |
| 20260506033520 | 12 | 315 | 3.2 | 3.2 | 0.00 | 0.00 | 0.00 | 26 | 1012.1 |
| 20260506032519 | 13 | 315 | 3.2 | 3.2 | 0.00 | 0.00 | 0.00 | 26 | 1012.0 |
| 20260506031519 | 13 | 288 | 3.2 | 6.4 | 0.00 | 0.00 | 0.00 | 26 | 1012.0 |
| 20260506030519 | 13 | 225 | 6.4 | 6.4 | 0.00 | 0.00 | 0.00 | 26 | 1011.9 |
| 20260506025518 | 13 | 225 | 6.4 | 6.4 | 0.00 | 0.00 | 0.00 | 26 | 1011.9 |
| 20260506024518 | 13 | 225 | 6.4 | 6.4 | 0.00 | 0.00 | 0.00 | 26 | 1012.0 |
| 20260506023518 | 13 | 225 | 6.4 | 6.4 | 0.00 | 0.00 | 0.00 | 26 | 1012.0 |
| 20260506022517 | 13 | 225 | 6.4 | 6.4 | 0.00 | 0.00 | 0.00 | 26 | 1011.9 |
| 20260506021517 | 13 | 225 | 6.4 | 6.4 | 0.00 | 0.00 | 0.00 | 26 | 1012.0 |
| 20260506020517 | 13 | 225 | 6.4 | 6.4 | 0.00 | 0.00 | 0.00 | 26 | 1011.9 |
| 20260506015517 | 13 | 225 | 6.4 | 6.4 | 0.00 | 0.00 | 0.00 | 26 | 1011.9 |
| 20260506014516 | 13 | 140 | 1.6 | 6.4 | 0.00 | 0.00 | 0.00 | 26 | 1011.9 |
| 20260506013516 | 13 | 270 | 4.8 | 4.8 | 0.00 | 0.00 | 0.00 | 26 | 1011.8 |
| 20260506012516 | 13 | 270 | 4.8 | 4.8 | 0.00 | 0.00 | 0.00 | 26 | 1011.9 |
| 20260506011515 | 13 | 270 | 4.8 | 4.8 | 0.00 | 0.00 | 0.00 | 26 | 1011.9 |
| 20260506010515 | 13 | 270 | 4.8 | 4.8 | 0.00 | 0.00 | 0.00 | 26 | 1011.8 |
| 20260506005515 | 13 | 270 | 4.8 | 4.8 | 0.00 | 0.00 | 0.00 | 26 | 1011.9 |
| 20260506004515 | 13 | 270 | 4.8 | 4.8 | 0.00 | 0.00 | 0.00 | 26 | 1011.9 |
| 20260506003514 | 13 | 265 | 4.8 | 6.4 | 0.00 | 0.00 | 0.00 | 26 | 1012.0 |
| 20260506002514 | 14 | 135 | 6.4 | 6.4 | 0.00 | 0.00 | 0.00 | 25 | 1012.0 |
| 20260506001514 | 14 | 135 | 6.4 | 6.4 | 0.00 | 0.00 | 0.00 | 25 | 1012.0 |
| 20260506000513 | 14 | 211 | 4.8 | 6.4 | 0.00 | 0.00 | 0.00 | 25 | 1012.0 |
| 20260505235513 | 14 | 270 | 3.2 | 3.2 | 0.00 | 0.00 | 0.00 | 25 | 1012.0 |
| 20260505234513 | 14 | 270 | 3.2 | 3.2 | 0.00 | 0.00 | 0.00 | 25 | 1012.0 |
| 20260505233513 | 17 | 270 | 3.2 | 3.2 | 0.00 | 0.00 | 0.00 | 24 | 1012.6 |
| 20260505232512 | 17 | 270 | 3.2 | 3.2 | 0.00 | 0.00 | 0.00 | 24 | 1012.6 |
| 20260505231512 | 17 | 270 | 0.0 | 3.2 | 0.00 | 0.00 | 0.00 | 24 | 1012.7 |
| 20260505230514 | 17 | 0 | 0.0 | 0.0 | 0.00 | 0.00 | 0.00 | 24 | 1012.7 |
| 20260505225511 | 17 | 0 | 0.0 | 0.0 | 0.00 | 0.00 | 0.00 | 24 | 1012.7 |